Regional Weather Roundup
Issued by NWS

Home | Current Version | Previous Version | Graphics & Text | Print | Product List | Glossary On
Versions: 1 2 3 4 5 6 7 8 9 10 11 12 13 14 15 16 17 18 19 20 21 22 23 24 25 26 27 28 29 30 31 32 33 34 35 36 37 38 39 40 41 42 43 44 45 46 47 48 49 50
000
ASUS45 KSLC 051110
RWRUT

UTAH REGIONAL WEATHER ROUNDUP
NATIONAL WEATHER SERVICE SALT LAKE CITY UT
500 AM MDT THU MAY 05 2016

UTZ001>011-023>025-051200-

NORTHERN UTAH

CITY           SKY/WX    TMP DP  RH WIND       PRES   REMARKS
BRIGHAM CITY   CLOUDY    53  41  65 N5        29.95S
HILL AFB       CLOUDY    61  33  35 E16       29.96S
LOGAN          CLOUDY    48  42  80 CALM      29.98S
OGDEN          CLOUDY    58  36  43 SW7       29.94S
PROVO AIRPORT  CLOUDY    63  30  29 SE8       29.98R
SALT LAKE CITY CLOUDY    65  34  31 SE13      29.93R
VERNAL         CLOUDY    48  31  51 W6        30.09S
WENDOVER       CLOUDY    57  39  51 CALM      29.93S
HEBER CITY     CLOUDY    45  36  70 CALM      30.05S

$$

UTZ012>022-026-027-051200-

SOUTHERN/CENTRAL UTAH

CITY           SKY/WX    TMP DP  RH WIND       PRES   REMARKS
BLANDING       PTCLDY    51  27  39 N8        30.21R
BRYCE CANYON   MOCLDY    34  30  85 W6        30.15S WCI  29
CEDAR CITY     MOCLDY    45  35  68 S3        29.98S
DELTA          MOCLDY    59  30  33 S6        29.95F
HANKSVILLE     MOCLDY    54  36  50 CALM      30.03S
MILFORD        MOCLDY    47  33  58 NW7       29.96S
MOAB/CYNLANDS  PTCLDY    61  28  28 CALM      30.01R
PRICE          MOCLDY    54  29  38 N6        30.09R
ST GEORGE      CLOUDY    64  34  32 E8        29.87F

$$

REGIONAL REPORTS     COLORADO/ARIZONA

CITY           SKY/WX    TMP DP  RH WIND       PRES   REMARKS
CRAIG, CO      CLOUDY    34  31  88 CALM      30.18S
GRAND JUNCTION CLOUDY    54  31  41 SE16      30.08S
RIFLE          CLOUDY    41  32  70 S3        30.17S
MONTROSE       CLEAR     47  28  47 S7        30.18R
CORTEZ         CLEAR     41  29  62 CALM      30.16F
PAGE, AZ       PTCLDY    62  28  27 CALM      29.97S
GRAND CANYON   MOCLDY    39  30  70 NE3       30.11F
KINGMAN        PTCLDY    58  25  28 SE8       29.88R
FLAGSTAFF      MOCLDY    35  27  72 CALM      30.15S

$$

REGIONAL REPORTS    NEVADA/IDAHO/WYOMING

CITY           SKY/WX    TMP DP  RH WIND       PRES   REMARKS
LAS VEGAS, NV  PTCLDY    72  33  24 S7        29.72S
ELY            MOCLDY    38  27  64 CALM      29.99F
ELKO           CLOUDY    52  38  58 E8        29.92R
POCATELLO, ID  CLOUDY    48  40  73 NW5       29.96R
BURLEY         MOCLDY    52  43  71 SE3       29.90R
EVANSTON, WY   CLOUDY    54  23  30 E6        30.13S
ROCK SPRINGS   CLOUDY    50  27  40 CALM      30.15R
KEMMERER         N/A     41  30  65 N12       30.16S

$$



USA.gov is the U.S. government's official web portal to all federal, state and local government web resources and services.